Time,TemperatureF,DewpointF,PressureIn,WindDirection,WindDirectionDegrees,WindSpeedMPH,WindSpeedGustMPH,Humidity,HourlyPrecipIn,Conditions,Clouds,dailyrainin,SoftwareType,DateUTC
2013-03-04 00:04:00,19.8,5.8,30.12,East,96,0.0,0.0,54,0.00,,,0.00,Weather View 32 v70,2013-03-04 08:04:00,
2013-03-04 00:09:00,19.6,5.6,30.12,East,96,0.0,0.0,54,0.00,,,0.00,Weather View 32 v70,2013-03-04 08:09:00,
2013-03-04 00:14:00,19.4,5.5,30.12,East,96,0.0,0.0,54,0.00,,,0.00,Weather View 32 v70,2013-03-04 08:14:00,
2013-03-04 00:19:00,19.4,5.9,30.12,East,96,0.0,0.0,55,0.00,,,0.00,Weather View 32 v70,2013-03-04 08:19:00,
2013-03-04 00:24:00,19.0,5.9,30.12,East,96,0.0,0.0,56,0.00,,,0.00,Weather View 32 v70,2013-03-04 08:24:00,
2013-03-04 00:29:00,19.0,5.9,30.12,East,96,0.0,0.0,56,0.00,,,0.00,Weather View 32 v70,2013-03-04 08:29:00,
2013-03-04 00:30:00,19.0,5.5,30.12,East,96,0.0,0.0,55,0.00,,,0.00,Weather View 32 v70,2013-03-04 08:30:00,
2013-03-04 00:34:00,19.0,5.5,30.15,East,96,0.0,0.0,55,0.00,,,0.00,Weather View 32 v70,2013-03-04 08:34:00,
2013-03-04 00:39:00,18.9,5.4,30.15,East,96,0.0,0.0,55,0.00,,,0.00,Weather View 32 v70,2013-03-04 08:39:00,
2013-03-04 00:44:00,18.7,5.2,30.15,East,96,0.0,0.0,55,0.00,,,0.00,Weather View 32 v70,2013-03-04 08:44:00,
2013-03-04 00:49:00,18.5,5.0,30.15,East,96,0.0,0.0,55,0.00,,,0.00,Weather View 32 v70,2013-03-04 08:49:00,
2013-03-04 00:54:00,18.3,4.9,30.15,East,96,0.0,0.0,55,0.00,,,0.00,Weather View 32 v70,2013-03-04 08:54:00,
2013-03-04 00:59:00,18.1,4.7,30.15,East,96,0.0,0.0,55,0.00,,,0.00,Weather View 32 v70,2013-03-04 08:59:00,
2013-03-04 01:04:00,18.0,4.5,30.15,East,96,0.0,0.0,55,0.00,,,0.00,Weather View 32 v70,2013-03-04 09:04:00,
2013-03-04 01:09:00,17.8,4.3,30.15,East,96,0.0,0.0,55,0.00,,,0.00,Weather View 32 v70,2013-03-04 09:09:00,
2013-03-04 01:14:00,17.6,4.6,30.15,East,96,0.0,0.0,56,0.00,,,0.00,Weather View 32 v70,2013-03-04 09:14:00,
2013-03-04 01:19:00,17.4,4.4,30.15,East,96,0.0,0.0,56,0.00,,,0.00,Weather View 32 v70,2013-03-04 09:19:00,
2013-03-04 01:24:00,17.1,4.1,30.15,East,96,0.0,0.0,56,0.00,,,0.00,Weather View 32 v70,2013-03-04 09:24:00,
2013-03-04 01:29:00,17.1,4.4,30.15,East,96,0.0,0.0,57,0.00,,,0.00,Weather View 32 v70,2013-03-04 09:29:00,
2013-03-04 01:30:00,16.9,4.3,30.15,East,96,0.0,0.0,57,0.00,,,0.00,Weather View 32 v70,2013-03-04 09:30:00,
2013-03-04 01:34:00,16.7,4.1,30.15,East,96,0.0,0.0,57,0.00,,,0.00,Weather View 32 v70,2013-03-04 09:34:00,
2013-03-04 01:39:00,16.7,4.1,30.15,East,96,0.0,0.0,57,0.00,,,0.00,Weather View 32 v70,2013-03-04 09:39:00,
2013-03-04 01:44:00,16.5,4.3,30.15,East,96,0.0,0.0,58,0.00,,,0.00,Weather View 32 v70,2013-03-04 09:44:00,
2013-03-04 01:49:00,16.2,4.0,30.15,East,96,0.0,0.0,58,0.00,,,0.00,Weather View 32 v70,2013-03-04 09:49:00,
2013-03-04 01:54:00,16.3,4.2,30.15,East,96,0.0,0.0,58,0.00,,,0.00,Weather View 32 v70,2013-03-04 09:54:00,
2013-03-04 01:59:00,16.2,4.0,30.15,East,96,0.0,0.0,58,0.00,,,0.00,Weather View 32 v70,2013-03-04 09:59:00,
2013-03-04 02:04:00,16.0,3.8,30.15,East,96,0.0,0.0,58,0.00,,,0.00,Weather View 32 v70,2013-03-04 10:04:00,
2013-03-04 02:09:00,16.0,3.4,30.15,East,96,0.0,0.0,57,0.00,,,0.00,Weather View 32 v70,2013-03-04 10:09:00,
2013-03-04 02:14:00,15.8,3.6,30.15,East,96,0.0,0.0,58,0.00,,,0.00,Weather View 32 v70,2013-03-04 10:14:00,
2013-03-04 02:19:00,15.8,3.6,30.12,East,96,0.0,0.0,58,0.00,,,0.00,Weather View 32 v70,2013-03-04 10:19:00,
2013-03-04 02:24:00,15.8,3.6,30.12,East,96,0.0,0.0,58,0.00,,,0.00,Weather View 32 v70,2013-03-04 10:24:00,
2013-03-04 02:29:00,15.4,3.3,30.12,East,96,0.0,0.0,58,0.00,,,0.00,Weather View 32 v70,2013-03-04 10:29:00,
2013-03-04 02:30:00,15.4,3.3,30.12,East,96,0.0,0.0,58,0.00,,,0.00,Weather View 32 v70,2013-03-04 10:30:00,
2013-03-04 02:34:00,15.4,3.3,30.15,East,96,0.0,0.0,58,0.00,,,0.00,Weather View 32 v70,2013-03-04 10:34:00,
2013-03-04 02:39:00,15.3,3.1,30.15,East,96,0.0,0.0,58,0.00,,,0.00,Weather View 32 v70,2013-03-04 10:39:00,
2013-03-04 02:44:00,15.3,3.1,30.15,East,96,0.0,0.0,58,0.00,,,0.00,Weather View 32 v70,2013-03-04 10:44:00,
2013-03-04 02:49:00,15.1,3.0,30.12,East,96,0.0,0.0,58,0.00,,,0.00,Weather View 32 v70,2013-03-04 10:49:00,
2013-03-04 02:54:00,14.9,2.8,30.12,East,96,0.0,0.0,58,0.00,,,0.00,Weather View 32 v70,2013-03-04 10:54:00,
2013-03-04 02:59:00,14.5,2.5,30.12,East,96,0.0,0.0,58,0.00,,,0.00,Weather View 32 v70,2013-03-04 10:59:00,
2013-03-04 03:04:00,14.5,2.5,30.12,East,96,0.0,0.0,58,0.00,,,0.00,Weather View 32 v70,2013-03-04 11:04:00,
2013-03-04 03:09:00,14.5,2.5,30.12,East,96,0.0,0.0,58,0.00,,,0.00,Weather View 32 v70,2013-03-04 11:09:00,
2013-03-04 03:14:00,14.4,2.3,30.12,East,96,0.0,0.0,58,0.00,,,0.00,Weather View 32 v70,2013-03-04 11:14:00,
2013-03-04 03:19:00,14.2,2.1,30.12,East,96,0.0,0.0,58,0.00,,,0.00,Weather View 32 v70,2013-03-04 11:19:00,
2013-03-04 03:24:00,14.2,2.1,30.12,East,96,0.0,0.0,58,0.00,,,0.00,Weather View 32 v70,2013-03-04 11:24:00,
2013-03-04 03:29:00,14.0,2.3,30.12,East,96,0.0,0.0,59,0.00,,,0.00,Weather View 32 v70,2013-03-04 11:29:00,
2013-03-04 03:30:00,14.0,2.3,30.12,East,96,0.0,0.0,59,0.00,,,0.00,Weather View 32 v70,2013-03-04 11:30:00,
2013-03-04 03:35:00,13.8,2.5,30.15,East,96,0.0,0.0,60,0.00,,,0.00,Weather View 32 v70,2013-03-04 11:35:00,
2013-03-04 03:40:00,13.6,2.3,30.15,East,96,0.0,0.0,60,0.00,,,0.00,Weather View 32 v70,2013-03-04 11:40:00,
2013-03-04 03:45:00,13.8,2.5,30.15,East,96,0.0,0.0,60,0.00,,,0.00,Weather View 32 v70,2013-03-04 11:45:00,
2013-03-04 03:50:00,13.8,2.5,30.12,East,96,0.0,0.0,60,0.00,,,0.00,Weather View 32 v70,2013-03-04 11:50:00,
2013-03-04 03:55:00,13.8,2.5,30.12,East,96,0.0,0.0,60,0.00,,,0.00,Weather View 32 v70,2013-03-04 11:55:00,
2013-03-04 04:00:00,13.6,2.3,30.12,East,96,0.0,0.0,60,0.00,,,0.00,Weather View 32 v70,2013-03-04 12:00:00,
2013-03-04 04:05:00,13.6,2.3,30.12,East,96,0.0,0.0,60,0.00,,,0.00,Weather View 32 v70,2013-03-04 12:05:00,
2013-03-04 04:10:00,13.5,2.2,30.12,East,96,0.0,0.0,60,0.00,,,0.00,Weather View 32 v70,2013-03-04 12:10:00,
2013-03-04 04:15:00,13.5,2.2,30.12,East,96,0.0,0.0,60,0.00,,,0.00,Weather View 32 v70,2013-03-04 12:15:00,
2013-03-04 04:20:00,13.1,1.8,30.12,East,96,0.0,0.0,60,0.00,,,0.00,Weather View 32 v70,2013-03-04 12:20:00,
2013-03-04 04:25:00,13.1,1.8,30.12,East,96,0.0,0.0,60,0.00,,,0.00,Weather View 32 v70,2013-03-04 12:25:00,
2013-03-04 04:30:00,13.1,1.8,30.12,East,96,0.0,0.0,60,0.00,,,0.00,Weather View 32 v70,2013-03-04 12:30:00,
2013-03-04 04:35:00,12.9,1.7,30.12,East,96,0.0,0.0,60,0.00,,,0.00,Weather View 32 v70,2013-03-04 12:35:00,
2013-03-04 04:40:00,13.3,2.0,30.12,East,96,0.0,0.0,60,0.00,,,0.00,Weather View 32 v70,2013-03-04 12:40:00,
2013-03-04 04:45:00,13.3,2.0,30.12,East,96,0.0,0.0,60,0.00,,,0.00,Weather View 32 v70,2013-03-04 12:45:00,
2013-03-04 04:50:00,13.3,2.0,30.12,East,96,0.0,0.0,60,0.00,,,0.00,Weather View 32 v70,2013-03-04 12:50:00,
2013-03-04 04:55:00,12.9,1.7,30.12,East,96,0.0,0.0,60,0.00,,,0.00,Weather View 32 v70,2013-03-04 12:55:00,
2013-03-04 05:00:00,12.7,1.5,30.12,East,96,0.0,0.0,60,0.00,,,0.00,Weather View 32 v70,2013-03-04 13:00:00,
2013-03-04 05:05:00,13.3,2.0,30.12,East,96,0.0,0.0,60,0.00,,,0.00,Weather View 32 v70,2013-03-04 13:05:00,
2013-03-04 05:10:00,13.3,2.0,30.12,East,96,0.0,0.0,60,0.00,,,0.00,Weather View 32 v70,2013-03-04 13:10:00,
2013-03-04 05:15:00,13.6,2.3,30.12,East,96,4.0,4.0,60,0.00,,,0.00,Weather View 32 v70,2013-03-04 13:15:00,
2013-03-04 05:20:00,14.0,7.5,30.12,East,96,3.0,4.0,75,0.00,,,0.00,Weather View 32 v70,2013-03-04 13:20:00,
2013-03-04 05:25:00,14.2,7.7,30.12,East,96,3.0,4.0,75,0.00,,,0.00,Weather View 32 v70,2013-03-04 13:25:00,
2013-03-04 05:30:00,14.5,8.1,30.12,East,96,0.0,4.0,75,0.00,,,0.00,Weather View 32 v70,2013-03-04 13:30:00,
2013-03-04 05:35:00,14.9,8.1,30.12,SSE,161,4.0,5.0,74,0.00,,,0.00,Weather View 32 v70,2013-03-04 13:35:00,
2013-03-04 05:40:00,15.1,8.6,30.12,SSE,161,3.0,5.0,75,0.00,,,0.00,Weather View 32 v70,2013-03-04 13:40:00,
2013-03-04 05:45:00,15.3,8.8,30.12,SSE,161,3.0,5.0,75,0.00,,,0.00,Weather View 32 v70,2013-03-04 13:45:00,
2013-03-04 05:50:00,15.4,8.9,30.12,SSE,161,0.0,5.0,75,0.00,,,0.00,Weather View 32 v70,2013-03-04 13:50:00,
2013-03-04 05:55:00,15.6,8.8,30.12,SSE,161,0.0,5.0,74,0.00,,,0.00,Weather View 32 v70,2013-03-04 13:55:00,
2013-03-04 06:00:00,15.6,8.5,30.12,SSE,161,0.0,5.0,73,0.00,,,0.00,Weather View 32 v70,2013-03-04 14:00:00,
2013-03-04 06:05:00,15.3,7.9,30.12,SSE,161,0.0,5.0,72,0.00,,,0.00,Weather View 32 v70,2013-03-04 14:05:00,
2013-03-04 06:10:00,15.1,7.4,30.12,SSE,161,0.0,5.0,71,0.00,,,0.00,Weather View 32 v70,2013-03-04 14:10:00,
2013-03-04 06:15:00,14.9,6.9,30.12,SSE,161,0.0,5.0,70,0.00,,,0.00,Weather View 32 v70,2013-03-04 14:15:00,
2013-03-04 06:20:00,14.5,6.2,30.12,SSE,161,0.0,5.0,69,0.00,,,0.00,Weather View 32 v70,2013-03-04 14:20:00,
2013-03-04 06:25:00,14.4,5.7,30.12,SSE,161,0.0,5.0,68,0.00,,,0.00,Weather View 32 v70,2013-03-04 14:25:00,
2013-03-04 06:30:00,14.0,5.4,30.12,SSE,161,0.0,5.0,68,0.00,,,0.00,Weather View 32 v70,2013-03-04 14:30:00,
2013-03-04 06:35:00,13.5,4.9,30.12,SSE,161,0.0,5.0,68,0.00,,,0.00,Weather View 32 v70,2013-03-04 14:35:00,
2013-03-04 06:40:00,13.3,4.7,30.12,SSE,161,0.0,4.0,68,0.00,,,0.00,Weather View 32 v70,2013-03-04 14:40:00,
2013-03-04 06:45:00,13.3,4.7,30.12,SSE,161,0.0,4.0,68,0.00,,,0.00,Weather View 32 v70,2013-03-04 14:45:00,
2013-03-04 06:50:00,13.1,4.5,30.12,SSE,161,0.0,4.0,68,0.00,,,0.00,Weather View 32 v70,2013-03-04 14:50:00,
2013-03-04 06:55:00,13.3,4.7,30.12,SSE,161,0.0,3.0,68,0.00,,,0.00,Weather View 32 v70,2013-03-04 14:55:00,
2013-03-04 07:00:00,13.3,4.7,30.12,SSE,161,0.0,3.0,68,0.00,,,0.00,Weather View 32 v70,2013-03-04 15:00:00,
2013-03-04 07:05:00,13.5,4.9,30.12,SSE,161,0.0,0.0,68,0.00,,,0.00,Weather View 32 v70,2013-03-04 15:05:00,
2013-03-04 07:10:00,13.6,5.0,30.12,SSE,161,0.0,0.0,68,0.00,,,0.00,Weather View 32 v70,2013-03-04 15:10:00,
2013-03-04 07:15:00,14.5,5.3,30.12,SSE,161,0.0,0.0,66,0.00,,,0.00,Weather View 32 v70,2013-03-04 15:15:00,
2013-03-04 07:20:00,16.7,7.3,30.12,SSE,161,0.0,0.0,66,0.00,,,0.00,Weather View 32 v70,2013-03-04 15:20:00,
2013-03-04 07:25:00,19.2,8.3,30.12,SSE,161,3.0,4.0,62,0.00,,,0.00,Weather View 32 v70,2013-03-04 15:25:00,
2013-03-04 07:30:00,20.5,8.0,30.12,SSE,161,2.0,5.0,58,0.00,,,0.00,Weather View 32 v70,2013-03-04 15:30:00,
2013-03-04 07:36:00,21.7,8.5,30.12,SSE,161,4.0,6.0,56,0.00,,,0.00,Weather View 32 v70,2013-03-04 15:36:00,
2013-03-04 07:41:00,22.5,8.3,30.12,SSE,161,6.0,6.0,54,0.00,,,0.00,Weather View 32 v70,2013-03-04 15:41:00,
2013-03-04 07:46:00,22.8,8.7,30.12,SSE,161,3.0,6.0,54,0.00,,,0.00,Weather View 32 v70,2013-03-04 15:46:00,
2013-03-04 07:51:00,23.4,9.2,30.12,SSE,161,4.0,6.0,54,0.00,,,0.00,Weather View 32 v70,2013-03-04 15:51:00,
2013-03-04 07:56:00,24.1,9.4,30.12,SSE,161,2.0,6.0,53,0.00,,,0.00,Weather View 32 v70,2013-03-04 15:56:00,
2013-03-04 08:01:00,25.0,10.3,30.12,SSE,161,3.0,6.0,53,0.00,,,0.00,Weather View 32 v70,2013-03-04 16:01:00,
2013-03-04 08:06:00,26.8,11.5,30.12,SSE,161,3.0,6.0,52,0.00,,,0.00,Weather View 32 v70,2013-03-04 16:06:00,
2013-03-04 08:11:00,27.5,10.8,30.12,SSE,161,4.0,6.0,49,0.00,,,0.00,Weather View 32 v70,2013-03-04 16:11:00,
2013-03-04 08:16:00,28.4,11.7,30.12,SSE,161,4.0,6.0,49,0.00,,,0.00,Weather View 32 v70,2013-03-04 16:16:00,
2013-03-04 08:21:00,29.1,10.4,30.12,SSE,161,4.0,6.0,45,0.00,,,0.00,Weather View 32 v70,2013-03-04 16:21:00,
2013-03-04 08:26:00,29.5,10.7,30.12,SSE,161,4.0,6.0,45,0.00,,,0.00,Weather View 32 v70,2013-03-04 16:26:00,
2013-03-04 08:30:00,30.0,11.2,30.12,SSE,161,5.0,6.0,45,0.00,,,0.00,Weather View 32 v70,2013-03-04 16:30:00,
2013-03-04 08:31:00,30.0,11.2,30.12,SSE,161,5.0,6.0,45,0.00,,,0.00,Weather View 32 v70,2013-03-04 16:31:00,
2013-03-04 08:36:00,30.9,11.0,30.12,SSE,161,3.0,6.0,43,0.00,,,0.00,Weather View 32 v70,2013-03-04 16:36:00,
2013-03-04 08:41:00,31.3,11.4,30.12,SSE,161,2.0,6.0,43,0.00,,,0.00,Weather View 32 v70,2013-03-04 16:41:00,
2013-03-04 08:46:00,32.2,12.2,30.12,SSE,161,2.0,6.0,43,0.00,,,0.00,Weather View 32 v70,2013-03-04 16:46:00,
2013-03-04 08:51:00,33.1,12.5,30.12,SSE,161,5.0,8.0,42,0.00,,,0.00,Weather View 32 v70,2013-03-04 16:51:00,
2013-03-04 08:56:00,33.8,13.1,30.12,SSE,161,4.0,8.0,42,0.00,,,0.00,Weather View 32 v70,2013-03-04 16:56:00,
2013-03-04 09:01:00,34.7,13.4,30.12,SSE,161,4.0,8.0,41,0.00,,,0.00,Weather View 32 v70,2013-03-04 17:01:00,
2013-03-04 09:06:00,35.4,14.0,30.12,SSE,162,6.0,9.0,41,0.00,,,0.00,Weather View 32 v70,2013-03-04 17:06:00,
2013-03-04 09:11:00,35.4,14.0,30.12,SSE,162,5.0,10.0,41,0.00,,,0.00,Weather View 32 v70,2013-03-04 17:11:00,
2013-03-04 09:16:00,35.8,13.8,30.12,SSE,162,10.0,10.0,40,0.00,,,0.00,Weather View 32 v70,2013-03-04 17:16:00,
2013-03-04 09:21:00,36.7,14.6,30.09,SSE,161,4.0,10.0,40,0.00,,,0.00,Weather View 32 v70,2013-03-04 17:21:00,
2013-03-04 09:26:00,37.0,14.9,30.09,SSE,161,3.0,10.0,40,0.00,,,0.00,Weather View 32 v70,2013-03-04 17:26:00,
2013-03-04 09:31:00,37.6,15.4,30.09,SSE,162,10.0,10.0,40,0.00,,,0.00,Weather View 32 v70,2013-03-04 17:31:00,
2013-03-04 09:36:00,38.3,16.1,30.09,SSE,162,6.0,10.0,40,0.00,,,0.00,Weather View 32 v70,2013-03-04 17:36:00,
2013-03-04 09:41:00,39.2,16.3,30.09,SSE,161,5.0,10.0,39,0.00,,,0.00,Weather View 32 v70,2013-03-04 17:41:00,
2013-03-04 09:46:00,38.7,16.4,30.09,SSE,162,8.0,12.0,40,0.00,,,0.00,Weather View 32 v70,2013-03-04 17:46:00,
2013-03-04 09:51:00,39.0,16.7,30.09,SSE,162,5.0,12.0,40,0.00,,,0.00,Weather View 32 v70,2013-03-04 17:51:00,
2013-03-04 09:56:00,38.5,16.2,30.09,SSE,162,8.0,12.0,40,0.00,,,0.00,Weather View 32 v70,2013-03-04 17:56:00,
2013-03-04 10:01:00,38.8,16.6,30.09,SSE,162,6.0,12.0,40,0.00,,,0.00,Weather View 32 v70,2013-03-04 18:01:00,
2013-03-04 10:06:00,41.2,18.1,30.09,SSE,162,4.0,12.0,39,0.00,,,0.00,Weather View 32 v70,2013-03-04 18:06:00,
2013-03-04 10:11:00,42.6,19.4,30.09,SSE,162,11.0,12.0,39,0.00,,,0.00,Weather View 32 v70,2013-03-04 18:11:00,
2013-03-04 10:16:00,42.4,19.2,30.09,SSE,162,11.0,13.0,39,0.00,,,0.00,Weather View 32 v70,2013-03-04 18:16:00,
2013-03-04 10:21:00,41.5,18.4,30.09,SSE,162,11.0,14.0,39,0.00,,,0.00,Weather View 32 v70,2013-03-04 18:21:00,
2013-03-04 10:26:00,41.9,18.7,30.09,SSE,162,8.0,14.0,39,0.00,,,0.00,Weather View 32 v70,2013-03-04 18:26:00,
2013-03-04 10:29:00,42.8,18.9,30.09,SSE,162,11.0,14.0,38,0.00,,,0.00,Weather View 32 v70,2013-03-04 18:29:00,
2013-03-04 10:30:00,42.8,18.9,30.09,SSE,162,8.0,14.0,38,0.00,,,0.00,Weather View 32 v70,2013-03-04 18:30:00,
2013-03-04 10:35:00,42.8,18.9,30.06,SSE,162,11.0,14.0,38,0.00,,,0.00,Weather View 32 v70,2013-03-04 18:35:00,
2013-03-04 10:40:00,42.6,19.4,30.06,SSE,162,11.0,17.0,39,0.00,,,0.00,Weather View 32 v70,2013-03-04 18:40:00,
2013-03-04 10:45:00,43.0,19.1,30.06,SSE,161,8.0,17.0,38,0.00,,,0.00,Weather View 32 v70,2013-03-04 18:45:00,
2013-03-04 10:50:00,43.2,19.2,30.06,SSE,162,10.0,17.0,38,0.00,,,0.00,Weather View 32 v70,2013-03-04 18:50:00,
2013-03-04 10:55:00,43.3,19.4,30.06,SSE,161,4.0,17.0,38,0.00,,,0.00,Weather View 32 v70,2013-03-04 18:55:00,
2013-03-04 11:00:00,43.9,19.9,30.06,SSE,161,5.0,17.0,38,0.00,,,0.00,Weather View 32 v70,2013-03-04 19:00:00,
2013-03-04 11:05:00,43.9,19.9,30.06,SSE,161,4.0,17.0,38,0.00,,,0.00,Weather View 32 v70,2013-03-04 19:05:00,
2013-03-04 11:10:00,44.1,20.0,30.06,SSE,162,8.0,17.0,38,0.00,,,0.00,Weather View 32 v70,2013-03-04 19:10:00,
2013-03-04 11:15:00,44.1,20.0,30.06,SSE,162,10.0,17.0,38,0.00,,,0.00,Weather View 32 v70,2013-03-04 19:15:00,
2013-03-04 11:20:00,44.1,20.0,30.06,SSE,162,10.0,17.0,38,0.00,,,0.00,Weather View 32 v70,2013-03-04 19:20:00,
2013-03-04 11:25:00,44.4,20.4,30.06,SSE,162,8.0,17.0,38,0.00,,,0.00,Weather View 32 v70,2013-03-04 19:25:00,
2013-03-04 11:30:00,45.0,20.8,30.06,SSE,162,9.0,17.0,38,0.00,,,0.00,Weather View 32 v70,2013-03-04 19:30:00,
2013-03-04 11:35:00,45.1,21.0,30.03,SSE,161,5.0,17.0,38,0.00,,,0.00,Weather View 32 v70,2013-03-04 19:35:00,
2013-03-04 11:40:00,46.0,21.8,30.03,SSE,161,8.0,15.0,38,0.00,,,0.00,Weather View 32 v70,2013-03-04 19:40:00,
2013-03-04 11:45:00,46.2,22.0,30.03,SSE,161,6.0,15.0,38,0.00,,,0.00,Weather View 32 v70,2013-03-04 19:45:00,
2013-03-04 11:50:00,46.6,21.7,30.03,SSE,161,5.0,13.0,37,0.00,,,0.00,Weather View 32 v70,2013-03-04 19:50:00,
2013-03-04 11:55:00,46.6,21.7,30.03,SSE,161,6.0,13.0,37,0.00,,,0.00,Weather View 32 v70,2013-03-04 19:55:00,
2013-03-04 12:00:00,47.1,22.1,30.03,SSE,162,6.0,13.0,37,0.00,,,0.00,Weather View 32 v70,2013-03-04 20:00:00,
2013-03-04 12:05:00,47.3,22.3,30.03,SSE,162,8.0,13.0,37,0.00,,,0.00,Weather View 32 v70,2013-03-04 20:05:00,
2013-03-04 12:10:00,46.4,21.5,30.03,SSE,162,6.0,13.0,37,0.00,,,0.00,Weather View 32 v70,2013-03-04 20:10:00,
2013-03-04 12:15:00,46.6,21.7,30.03,SSE,161,6.0,13.0,37,0.00,,,0.00,Weather View 32 v70,2013-03-04 20:15:00,
2013-03-04 12:20:00,47.3,22.3,30.03,SSE,162,5.0,13.0,37,0.00,,,0.00,Weather View 32 v70,2013-03-04 20:20:00,
2013-03-04 12:25:00,47.7,22.6,30.03,SSE,162,6.0,13.0,37,0.00,,,0.00,Weather View 32 v70,2013-03-04 20:25:00,
2013-03-04 12:30:00,48.0,22.9,30.03,SSE,161,3.0,13.0,37,0.00,,,0.00,Weather View 32 v70,2013-03-04 20:30:00,
2013-03-04 12:35:00,48.2,23.1,30.03,SSE,161,2.0,13.0,37,0.00,,,0.00,Weather View 32 v70,2013-03-04 20:35:00,
2013-03-04 12:40:00,48.6,23.4,30.03,NW,320,5.0,13.0,37,0.00,,,0.00,Weather View 32 v70,2013-03-04 20:40:00,
2013-03-04 12:45:00,48.2,23.1,30.03,NNW,330,6.0,13.0,37,0.00,,,0.00,Weather View 32 v70,2013-03-04 20:45:00,
2013-03-04 12:50:00,48.6,23.4,30.00,NW,318,4.0,11.0,37,0.00,,,0.00,Weather View 32 v70,2013-03-04 20:50:00,
2013-03-04 12:55:00,49.3,24.1,30.00,NW,319,3.0,11.0,37,0.00,,,0.00,Weather View 32 v70,2013-03-04 20:55:00,
2013-03-04 13:00:00,49.3,24.1,30.00,WNW,303,4.0,11.0,37,0.00,,,0.00,Weather View 32 v70,2013-03-04 21:00:00,
2013-03-04 13:05:00,49.3,24.1,30.00,NNW,348,5.0,11.0,37,0.00,,,0.00,Weather View 32 v70,2013-03-04 21:05:00,
2013-03-04 13:10:00,48.7,23.6,30.00,North,357,0.0,11.0,37,0.00,,,0.00,Weather View 32 v70,2013-03-04 21:10:00,
2013-03-04 13:15:00,48.9,23.7,30.00,NW,313,4.0,11.0,37,0.00,,,0.00,Weather View 32 v70,2013-03-04 21:15:00,
2013-03-04 13:20:00,49.3,24.1,30.00,NNE,31,0.0,11.0,37,0.00,,,0.00,Weather View 32 v70,2013-03-04 21:20:00,
2013-03-04 13:25:00,48.9,23.7,30.00,NE,43,3.0,8.0,37,0.00,,,0.00,Weather View 32 v70,2013-03-04 21:25:00,
2013-03-04 13:30:00,48.7,23.6,30.00,NW,306,5.0,8.0,37,0.00,,,0.00,Weather View 32 v70,2013-03-04 21:30:00,
2013-03-04 13:35:00,49.3,24.1,30.00,WSW,255,4.0,8.0,37,0.00,,,0.00,Weather View 32 v70,2013-03-04 21:35:00,
2013-03-04 13:40:00,49.6,24.4,30.00,SW,225,4.0,8.0,37,0.00,,,0.00,Weather View 32 v70,2013-03-04 21:40:00,
2013-03-04 13:45:00,49.5,24.2,30.00,SW,225,3.0,8.0,37,0.00,,,0.00,Weather View 32 v70,2013-03-04 21:45:00,
2013-03-04 13:50:00,49.3,24.1,30.00,SW,225,5.0,8.0,37,0.00,,,0.00,Weather View 32 v70,2013-03-04 21:50:00,
2013-03-04 13:55:00,49.1,23.9,30.00,SW,225,3.0,8.0,37,0.00,,,0.00,Weather View 32 v70,2013-03-04 21:55:00,
2013-03-04 14:00:00,48.9,23.7,30.00,WSW,246,5.0,8.0,37,0.00,,,0.00,Weather View 32 v70,2013-03-04 22:00:00,
2013-03-04 14:06:00,49.3,24.1,29.97,NE,48,3.0,7.0,37,0.00,,,0.00,Weather View 32 v70,2013-03-04 22:06:00,
2013-03-04 14:11:00,49.5,24.2,29.97,North,4,3.0,7.0,37,0.00,,,0.00,Weather View 32 v70,2013-03-04 22:11:00,
2013-03-04 14:16:00,49.8,24.5,29.97,NNE,14,0.0,7.0,37,0.00,,,0.00,Weather View 32 v70,2013-03-04 22:16:00,
2013-03-04 14:21:00,50.2,24.9,29.97,NNE,15,5.0,7.0,37,0.00,,,0.00,Weather View 32 v70,2013-03-04 22:21:00,
2013-03-04 14:26:00,50.2,24.9,29.97,North,357,3.0,8.0,37,0.00,,,0.00,Weather View 32 v70,2013-03-04 22:26:00,
2013-03-04 14:31:00,50.2,24.9,29.97,NE,34,3.0,8.0,37,0.00,,,0.00,Weather View 32 v70,2013-03-04 22:31:00,
2013-03-04 14:36:00,50.4,25.0,29.97,NE,34,0.0,8.0,37,0.00,,,0.00,Weather View 32 v70,2013-03-04 22:36:00,
2013-03-04 14:41:00,50.2,24.9,29.97,ENE,63,4.0,8.0,37,0.00,,,0.00,Weather View 32 v70,2013-03-04 22:41:00,
2013-03-04 14:46:00,50.2,24.9,29.97,ENE,61,2.0,8.0,37,0.00,,,0.00,Weather View 32 v70,2013-03-04 22:46:00,
2013-03-04 14:51:00,50.2,24.9,29.97,NE,55,3.0,8.0,37,0.00,,,0.00,Weather View 32 v70,2013-03-04 22:51:00,
2013-03-04 15:00:00,50.5,25.2,29.97,ENE,63,3.0,8.0,37,0.00,,,0.00,Weather View 32 v70,2013-03-04 23:00:00,
2013-03-04 15:09:00,50.9,25.5,29.97,SSE,161,0.0,8.0,37,0.00,,,0.00,Weather View 32 v70,2013-03-04 23:09:00,
2013-03-04 15:14:00,50.9,25.5,29.97,SSE,162,6.0,8.0,37,0.00,,,0.00,Weather View 32 v70,2013-03-04 23:14:00,
2013-03-04 15:19:00,50.9,25.5,29.97,SSE,162,6.0,8.0,37,0.00,,,0.00,Weather View 32 v70,2013-03-04 23:19:00,
2013-03-04 15:24:00,50.9,25.5,29.97,ESE,104,2.0,8.0,37,0.00,,,0.00,Weather View 32 v70,2013-03-04 23:24:00,
2013-03-04 15:29:00,50.7,25.3,29.97,East,80,3.0,6.0,37,0.00,,,0.00,Weather View 32 v70,2013-03-04 23:29:00,
2013-03-04 15:34:00,51.1,25.7,29.97,SSE,161,3.0,6.0,37,0.00,,,0.00,Weather View 32 v70,2013-03-04 23:34:00,
2013-03-04 15:39:00,50.9,25.5,29.97,SSE,157,3.0,6.0,37,0.00,,,0.00,Weather View 32 v70,2013-03-04 23:39:00,
2013-03-04 15:44:00,50.7,25.3,29.97,SSE,162,2.0,6.0,37,0.00,,,0.00,Weather View 32 v70,2013-03-04 23:44:00,
2013-03-04 15:49:00,50.9,25.5,29.97,SSE,161,3.0,6.0,37,0.00,,,0.00,Weather View 32 v70,2013-03-04 23:49:00,
2013-03-04 15:54:00,51.3,25.8,29.97,ENE,64,5.0,6.0,37,0.00,,,0.00,Weather View 32 v70,2013-03-04 23:54:00,
2013-03-04 15:59:00,51.3,25.8,29.97,SSE,152,8.0,8.0,37,0.00,,,0.00,Weather View 32 v70,2013-03-04 23:59:00,
2013-03-04 16:04:00,50.9,25.5,29.94,ENE,66,6.0,8.0,37,0.00,,,0.00,Weather View 32 v70,2013-03-05 00:04:00,
2013-03-04 16:09:00,50.5,25.2,29.94,East,80,4.0,11.0,37,0.00,,,0.00,Weather View 32 v70,2013-03-05 00:09:00,
2013-03-04 16:14:00,50.2,24.9,29.94,ESE,123,8.0,11.0,37,0.00,,,0.00,Weather View 32 v70,2013-03-05 00:14:00,
2013-03-04 16:19:00,50.0,24.7,29.94,ENE,63,3.0,11.0,37,0.00,,,0.00,Weather View 32 v70,2013-03-05 00:19:00,
2013-03-04 16:24:00,49.6,24.4,29.94,ENE,67,8.0,11.0,37,0.00,,,0.00,Weather View 32 v70,2013-03-05 00:24:00,
2013-03-04 16:29:00,49.3,24.1,29.94,ESE,117,5.0,11.0,37,0.00,,,0.00,Weather View 32 v70,2013-03-05 00:29:00,
2013-03-04 16:34:00,49.1,23.9,29.94,SE,135,5.0,11.0,37,0.00,,,0.00,Weather View 32 v70,2013-03-05 00:34:00,
2013-03-04 16:39:00,48.7,23.6,29.94,ENE,78,8.0,11.0,37,0.00,,,0.00,Weather View 32 v70,2013-03-05 00:39:00,
2013-03-04 16:44:00,48.4,23.3,29.94,East,87,6.0,11.0,37,0.00,,,0.00,Weather View 32 v70,2013-03-05 00:44:00,
2013-03-04 16:49:00,48.4,23.3,29.94,East,79,6.0,11.0,37,0.00,,,0.00,Weather View 32 v70,2013-03-05 00:49:00,
2013-03-04 16:54:00,48.2,23.1,29.94,ENE,57,8.0,11.0,37,0.00,,,0.00,Weather View 32 v70,2013-03-05 00:54:00,
2013-03-04 16:59:00,47.3,22.3,29.94,NE,54,5.0,11.0,37,0.00,,,0.00,Weather View 32 v70,2013-03-05 00:59:00,
2013-03-04 17:04:00,46.8,21.8,29.94,ENE,70,2.0,11.0,37,0.00,,,0.00,Weather View 32 v70,2013-03-05 01:04:00,
2013-03-04 17:09:00,46.4,21.5,29.94,NE,55,3.0,9.0,37,0.00,,,0.00,Weather View 32 v70,2013-03-05 01:09:00,
2013-03-04 17:14:00,46.0,21.8,29.94,ENE,63,6.0,9.0,38,0.00,,,0.00,Weather View 32 v70,2013-03-05 01:14:00,
2013-03-04 17:19:00,45.7,21.5,29.94,NE,45,5.0,9.0,38,0.00,,,0.00,Weather View 32 v70,2013-03-05 01:19:00,
2013-03-04 17:24:00,45.1,21.0,29.94,NE,52,4.0,9.0,38,0.00,,,0.00,Weather View 32 v70,2013-03-05 01:24:00,
2013-03-04 17:30:00,44.6,20.5,29.94,ENE,73,5.0,9.0,38,0.00,,,0.00,Weather View 32 v70,2013-03-05 01:30:00,
2013-03-04 17:35:00,44.1,20.0,29.94,ENE,59,3.0,9.0,38,0.00,,,0.00,Weather View 32 v70,2013-03-05 01:35:00,
2013-03-04 17:40:00,43.3,19.4,29.94,ENE,61,3.0,9.0,38,0.00,,,0.00,Weather View 32 v70,2013-03-05 01:40:00,
2013-03-04 17:45:00,42.8,18.9,29.94,ENE,58,4.0,9.0,38,0.00,,,0.00,Weather View 32 v70,2013-03-05 01:45:00,
2013-03-04 17:50:00,42.3,19.0,29.94,ENE,71,3.0,9.0,39,0.00,,,0.00,Weather View 32 v70,2013-03-05 01:50:00,
2013-03-04 17:55:00,41.7,18.6,29.94,ENE,70,2.0,9.0,39,0.00,,,0.00,Weather View 32 v70,2013-03-05 01:55:00,
2013-03-04 18:00:00,41.2,18.1,29.94,ENE,70,0.0,9.0,39,0.00,,,0.00,Weather View 32 v70,2013-03-05 02:00:00,
2013-03-04 18:05:00,40.5,17.4,29.94,ENE,70,3.0,9.0,39,0.00,,,0.00,Weather View 32 v70,2013-03-05 02:05:00,
2013-03-04 18:10:00,39.9,16.9,29.94,ENE,70,0.0,9.0,39,0.00,,,0.00,Weather View 32 v70,2013-03-05 02:10:00,
2013-03-04 18:15:00,39.2,16.3,29.94,ENE,70,0.0,9.0,39,0.00,,,0.00,Weather View 32 v70,2013-03-05 02:15:00,
2013-03-04 18:20:00,38.7,16.4,29.94,ENE,70,3.0,8.0,40,0.00,,,0.00,Weather View 32 v70,2013-03-05 02:20:00,
2013-03-04 18:25:00,38.5,16.2,29.94,ENE,70,3.0,8.0,40,0.00,,,0.00,Weather View 32 v70,2013-03-05 02:25:00,
2013-03-04 18:30:00,37.9,15.7,29.94,North,9,0.0,6.0,40,0.00,,,0.00,Weather View 32 v70,2013-03-05 02:30:00,
2013-03-04 18:35:00,37.6,15.4,29.94,North,9,0.0,6.0,40,0.00,,,0.00,Weather View 32 v70,2013-03-05 02:35:00,
2013-03-04 18:40:00,36.9,14.8,29.94,North,9,3.0,6.0,40,0.00,,,0.00,Weather View 32 v70,2013-03-05 02:40:00,
2013-03-04 18:45:00,36.1,14.1,29.94,North,9,0.0,6.0,40,0.00,,,0.00,Weather View 32 v70,2013-03-05 02:45:00,
2013-03-04 18:50:00,35.6,13.6,29.94,North,9,3.0,4.0,40,0.00,,,0.00,Weather View 32 v70,2013-03-05 02:50:00,
2013-03-04 18:55:00,35.1,13.7,29.94,North,9,3.0,4.0,41,0.00,,,0.00,Weather View 32 v70,2013-03-05 02:55:00,
2013-03-04 19:00:00,34.3,13.1,29.94,North,9,3.0,4.0,41,0.00,,,0.00,Weather View 32 v70,2013-03-05 03:00:00,
2013-03-04 19:05:00,33.8,12.6,29.94,North,7,2.0,4.0,41,0.00,,,0.00,Weather View 32 v70,2013-03-05 03:05:00,
2013-03-04 19:10:00,33.4,12.2,29.94,North,2,2.0,4.0,41,0.00,,,0.00,Weather View 32 v70,2013-03-05 03:10:00,
2013-03-04 19:15:00,33.1,11.9,29.94,North,2,3.0,4.0,41,0.00,,,0.00,Weather View 32 v70,2013-03-05 03:15:00,
2013-03-04 19:20:00,32.7,11.6,29.94,North,2,2.0,4.0,41,0.00,,,0.00,Weather View 32 v70,2013-03-05 03:20:00,
2013-03-04 19:25:00,32.5,11.4,29.94,North,2,3.0,4.0,41,0.00,,,0.00,Weather View 32 v70,2013-03-05 03:25:00,
2013-03-04 19:31:00,32.0,11.5,29.94,North,2,3.0,4.0,42,0.00,,,0.00,Weather View 32 v70,2013-03-05 03:31:00,
2013-03-04 19:36:00,31.6,11.2,29.94,North,357,2.0,4.0,42,0.00,,,0.00,Weather View 32 v70,2013-03-05 03:36:00,
2013-03-04 19:41:00,31.1,10.7,29.94,North,357,0.0,4.0,42,0.00,,,0.00,Weather View 32 v70,2013-03-05 03:41:00,
2013-03-04 19:46:00,30.7,10.3,29.94,North,357,0.0,4.0,42,0.00,,,0.00,Weather View 32 v70,2013-03-05 03:46:00,
2013-03-04 19:51:00,30.4,10.0,29.94,North,357,0.0,4.0,42,0.00,,,0.00,Weather View 32 v70,2013-03-05 03:51:00,
2013-03-04 19:56:00,30.0,10.2,29.94,North,357,0.0,4.0,43,0.00,,,0.00,Weather View 32 v70,2013-03-05 03:56:00,
2013-03-04 20:01:00,29.7,9.9,29.94,North,357,0.0,4.0,43,0.00,,,0.00,Weather View 32 v70,2013-03-05 04:01:00,
2013-03-04 20:06:00,29.5,9.7,29.94,North,357,0.0,4.0,43,0.00,,,0.00,Weather View 32 v70,2013-03-05 04:06:00,
2013-03-04 20:11:00,28.9,9.2,29.94,North,357,0.0,4.0,43,0.00,,,0.00,Weather View 32 v70,2013-03-05 04:11:00,
2013-03-04 20:16:00,28.8,9.1,29.94,North,357,0.0,4.0,43,0.00,,,0.00,Weather View 32 v70,2013-03-05 04:16:00,
2013-03-04 20:21:00,28.6,8.9,29.94,North,357,0.0,4.0,43,0.00,,,0.00,Weather View 32 v70,2013-03-05 04:21:00,
2013-03-04 20:26:00,28.6,8.9,29.94,North,357,0.0,4.0,43,0.00,,,0.00,Weather View 32 v70,2013-03-05 04:26:00,
2013-03-04 20:31:00,28.2,9.1,29.94,North,357,0.0,4.0,44,0.00,,,0.00,Weather View 32 v70,2013-03-05 04:31:00,
2013-03-04 20:36:00,28.0,8.9,29.94,North,357,0.0,3.0,44,0.00,,,0.00,Weather View 32 v70,2013-03-05 04:36:00,
2013-03-04 20:41:00,27.9,9.3,29.94,North,357,0.0,0.0,45,0.00,,,0.00,Weather View 32 v70,2013-03-05 04:41:00,
2013-03-04 20:46:00,27.7,9.1,29.94,North,357,0.0,0.0,45,0.00,,,0.00,Weather View 32 v70,2013-03-05 04:46:00,
2013-03-04 20:51:00,27.5,8.9,29.94,North,357,0.0,0.0,45,0.00,,,0.00,Weather View 32 v70,2013-03-05 04:51:00,
2013-03-04 20:56:00,27.5,8.9,29.94,North,357,0.0,0.0,45,0.00,,,0.00,Weather View 32 v70,2013-03-05 04:56:00,
2013-03-04 21:00:00,27.3,8.8,29.94,North,357,0.0,0.0,45,0.00,,,0.00,Weather View 32 v70,2013-03-05 05:00:00,
2013-03-04 21:05:00,27.3,8.8,29.94,North,357,0.0,0.0,45,0.00,,,0.00,Weather View 32 v70,2013-03-05 05:05:00,
2013-03-04 21:10:00,27.1,8.6,29.94,North,357,0.0,0.0,45,0.00,,,0.00,Weather View 32 v70,2013-03-05 05:10:00,
2013-03-04 21:15:00,27.0,8.4,29.94,North,357,0.0,0.0,45,0.00,,,0.00,Weather View 32 v70,2013-03-05 05:15:00,
2013-03-04 21:20:00,27.0,8.4,29.94,North,357,0.0,0.0,45,0.00,,,0.00,Weather View 32 v70,2013-03-05 05:20:00,
2013-03-04 21:25:00,26.8,8.3,29.94,North,357,0.0,0.0,45,0.00,,,0.00,Weather View 32 v70,2013-03-05 05:25:00,
2013-03-04 21:30:00,26.6,8.1,29.94,North,357,0.0,0.0,45,0.00,,,0.00,Weather View 32 v70,2013-03-05 05:30:00,
2013-03-04 21:35:00,26.6,8.1,29.94,North,357,0.0,0.0,45,0.00,,,0.00,Weather View 32 v70,2013-03-05 05:35:00,
2013-03-04 21:40:00,26.4,7.9,29.94,North,357,0.0,0.0,45,0.00,,,0.00,Weather View 32 v70,2013-03-05 05:40:00,
2013-03-04 21:45:00,26.2,8.3,29.94,North,357,0.0,0.0,46,0.00,,,0.00,Weather View 32 v70,2013-03-05 05:45:00,
2013-03-04 21:50:00,26.2,8.3,29.94,North,357,0.0,0.0,46,0.00,,,0.00,Weather View 32 v70,2013-03-05 05:50:00,
2013-03-04 21:55:00,26.2,8.3,29.94,North,357,0.0,0.0,46,0.00,,,0.00,Weather View 32 v70,2013-03-05 05:55:00,
2013-03-04 22:00:00,26.1,9.0,29.94,North,357,0.0,0.0,48,0.00,,,0.00,Weather View 32 v70,2013-03-05 06:00:00,
2013-03-04 22:05:00,25.9,8.4,29.94,North,357,0.0,0.0,47,0.00,,,0.00,Weather View 32 v70,2013-03-05 06:05:00,
2013-03-04 22:10:00,25.7,8.2,29.94,North,357,0.0,0.0,47,0.00,,,0.00,Weather View 32 v70,2013-03-05 06:10:00,
2013-03-04 22:12:00,25.7,8.2,29.94,North,357,0.0,0.0,47,0.00,,,0.00,Weather View 32 v70,2013-03-05 06:12:00,
2013-03-04 22:17:00,25.7,8.2,29.94,North,357,0.0,0.0,47,0.00,,,0.00,Weather View 32 v70,2013-03-05 06:17:00,
2013-03-04 22:22:00,25.5,8.1,29.94,North,357,0.0,0.0,47,0.00,,,0.00,Weather View 32 v70,2013-03-05 06:22:00,
2013-03-04 22:27:00,25.3,7.9,29.94,North,357,0.0,0.0,47,0.00,,,0.00,Weather View 32 v70,2013-03-05 06:27:00,
2013-03-04 22:32:00,25.3,7.9,29.94,North,357,0.0,0.0,47,0.00,,,0.00,Weather View 32 v70,2013-03-05 06:32:00,
2013-03-04 22:37:00,25.2,7.7,29.94,North,357,0.0,0.0,47,0.00,,,0.00,Weather View 32 v70,2013-03-05 06:37:00,
2013-03-04 22:42:00,25.2,7.7,29.94,North,357,0.0,0.0,47,0.00,,,0.00,Weather View 32 v70,2013-03-05 06:42:00,
2013-03-04 22:47:00,25.0,8.0,29.94,North,357,0.0,0.0,48,0.00,,,0.00,Weather View 32 v70,2013-03-05 06:47:00,
2013-03-04 22:52:00,25.0,8.5,29.94,North,357,0.0,0.0,49,0.00,,,0.00,Weather View 32 v70,2013-03-05 06:52:00,
2013-03-04 22:57:00,24.6,8.6,29.94,North,357,0.0,0.0,50,0.00,,,0.00,Weather View 32 v70,2013-03-05 06:57:00,
2013-03-04 23:02:00,24.6,8.6,29.94,North,357,0.0,0.0,50,0.00,,,0.00,Weather View 32 v70,2013-03-05 07:02:00,
2013-03-04 23:07:00,24.6,8.6,29.94,North,357,0.0,0.0,50,0.00,,,0.00,Weather View 32 v70,2013-03-05 07:07:00,
2013-03-04 23:12:00,24.6,8.6,29.94,North,357,0.0,0.0,50,0.00,,,0.00,Weather View 32 v70,2013-03-05 07:12:00,
2013-03-04 23:17:00,24.8,8.8,29.91,North,357,0.0,0.0,50,0.00,,,0.00,Weather View 32 v70,2013-03-05 07:17:00,
2013-03-04 23:22:00,24.8,8.8,29.91,North,357,0.0,0.0,50,0.00,,,0.00,Weather View 32 v70,2013-03-05 07:22:00,
2013-03-04 23:27:00,24.8,8.8,29.91,North,357,0.0,0.0,50,0.00,,,0.00,Weather View 32 v70,2013-03-05 07:27:00,
2013-03-04 23:32:00,24.8,8.8,29.91,North,357,0.0,0.0,50,0.00,,,0.00,Weather View 32 v70,2013-03-05 07:32:00,
2013-03-04 23:37:00,24.8,8.8,29.91,North,357,0.0,0.0,50,0.00,,,0.00,Weather View 32 v70,2013-03-05 07:37:00,
2013-03-04 23:43:00,24.6,8.6,29.91,North,357,0.0,0.0,50,0.00,,,0.00,Weather View 32 v70,2013-03-05 07:43:00,
2013-03-04 23:48:00,24.8,8.8,29.91,North,357,0.0,0.0,50,0.00,,,0.00,Weather View 32 v70,2013-03-05 07:48:00,
2013-03-04 23:53:00,24.8,8.8,29.91,North,357,0.0,0.0,50,0.00,,,0.00,Weather View 32 v70,2013-03-05 07:53:00,
2013-03-04 23:58:00,24.6,8.6,29.91,North,357,0.0,0.0,50,0.00,,,0.00,Weather View 32 v70,2013-03-05 07:58:00,